• In Uzbekistan
  • List of Countries
  • For 7 days
  • Water Temperature
  • Satellite Maps
  • Weather Map
  • Weather Widgets
  • user-avatar
    Login

    Hourly Weather Tynbahtino

    Today, 21 May, Monday

    Time Temperature Precipitation Wind Pressure Humidity
    00:00 +12°C° 0 mm 3 mps 751 mmHg 91%
    01:00 +11°C° 0 mm 3 mps 751 mmHg 91%
    02:00 +11°C° 0 mm 3 mps 752 mmHg 90%
    03:00 +10°C° 0 mm 3 mps 752 mmHg 89%
    04:00 +10°C° 0 mm 3 mps 753 mmHg 89%
    05:00 +10°C° 0 mm 3 mps 753 mmHg 87%
    06:00 +10°C° 0 mm 4 mps 754 mmHg 84%
    07:00 +10°C° 0 mm 4 mps 754 mmHg 82%
    08:00 +10°C° 0 mm 4 mps 754 mmHg 78%
    09:00 +11°C° 0 mm 4 mps 755 mmHg 74%
    10:00 +11°C° 0 mm 4 mps 755 mmHg 70%
    11:00 +12°C° 0 mm 3 mps 755 mmHg 67%
    12:00 +12°C° 0 mm 3 mps 756 mmHg 64%
    13:00 +13°C° 0 mm 3 mps 756 mmHg 60%
    14:00 +14°C° 0 mm 3 mps 756 mmHg 57%
    15:00 +15°C° 0 mm 4 mps 756 mmHg 53%
    16:00 +15°C° 0 mm 4 mps 756 mmHg 49%
    17:00 +16°C° 0 mm 3 mps 757 mmHg 52%
    18:00 +14°C° 0 mm 3 mps 757 mmHg 55%
    19:00 +15°C° 0 mm 2 mps 757 mmHg 58%
    20:00 +13°C° 0 mm 2 mps 758 mmHg 59%
    21:00 +12°C° 0 mm 2 mps 758 mmHg 59%
    22:00 +9°C° 0 mm 2 mps 758 mmHg 60%
    23:00 +9°C° 0 mm 2 mps 759 mmHg 61%

    Tomorrow, 22 May, Tuesday

    Time Temperature Precipitation Wind Pressure Humidity
    00:00 +9°C° 0 mm 2 mps 759 mmHg 62%
    01:00 +8°C° 0 mm 2 mps 759 mmHg 62%
    02:00 +8°C° 0 mm 2 mps 759 mmHg 65%
    03:00 +8°C° 0 mm 2 mps 760 mmHg 67%
    04:00 +7°C° 0 mm 2 mps 760 mmHg 69%
    05:00 +9°C° 0 mm 2 mps 760 mmHg 68%
    06:00 +10°C° 0 mm 2 mps 760 mmHg 67%
    07:00 +12°C° 0 mm 3 mps 760 mmHg 66%
    08:00 +14°C° 0 mm 3 mps 760 mmHg 62%
    09:00 +17°C° 0 mm 4 mps 761 mmHg 57%
    10:00 +19°C° 0 mm 4 mps 761 mmHg 53%
    11:00 +20°C° 0 mm 5 mps 760 mmHg 50%
    12:00 +21°C° 0 mm 5 mps 760 mmHg 48%
    13:00 +22°C° 0 mm 5 mps 760 mmHg 45%
    14:00 +22°C° 0 mm 5 mps 760 mmHg 45%
    15:00 +23°C° 0 mm 5 mps 759 mmHg 45%
    16:00 +23°C° 0 mm 5 mps 759 mmHg 45%
    17:00 +22°C° 0 mm 4 mps 759 mmHg 51%
    18:00 +22°C° 0 mm 3 mps 759 mmHg 56%
    19:00 +21°C° 0 mm 3 mps 759 mmHg 61%
    20:00 +19°C° 0 mm 3 mps 759 mmHg 64%
    21:00 +18°C° 0 mm 3 mps 759 mmHg 67%
    22:00 +16°C° 0 mm 3 mps 759 mmHg 70%
    23:00 +16°C° 0 mm 2 mps 759 mmHg 71%

    Day after tomorrow, 23 May, Wednesday

    Time Temperature Precipitation Wind Pressure Humidity
    00:00 +15°C° 0 mm 2 mps 760 mmHg 73%
    01:00 +15°C° 0 mm 2 mps 760 mmHg 74%
    02:00 +14°C° 0 mm 2 mps 760 mmHg 76%
    03:00 +14°C° 0 mm 2 mps 760 mmHg 77%
    04:00 +13°C° 0 mm 2 mps 760 mmHg 79%
    05:00 +15°C° 0 mm 2 mps 760 mmHg 77%
    06:00 +16°C° 0 mm 2 mps 760 mmHg 74%
    07:00 +17°C° 0 mm 2 mps 760 mmHg 72%
    08:00 +19°C° 0 mm 2 mps 760 mmHg 67%
    09:00 +21°C° 0 mm 3 mps 760 mmHg 61%
    10:00 +24°C° 0 mm 3 mps 760 mmHg 56%
    11:00 +23°C° 0 mm 4 mps 760 mmHg 54%
    12:00 +25°C° 0 mm 4 mps 760 mmHg 51%
    13:00 +26°C° 0 mm 5 mps 759 mmHg 49%
    14:00 +26°C° 0 mm 5 mps 759 mmHg 49%
    15:00 +26°C° 0 mm 5 mps 759 mmHg 50%
    16:00 +26°C° 0 mm 5 mps 758 mmHg 50%
    17:00 +25°C° 0 mm 5 mps 758 mmHg 55%
    18:00 +23°C° 0 mm 4 mps 758 mmHg 60%
    19:00 +22°C° 0 mm 3 mps 757 mmHg 65%
    20:00 +20°C° 0 mm 3 mps 757 mmHg 68%
    21:00 +19°C° 0 mm 3 mps 757 mmHg 71%
    22:00 +18°C° 0 mm 3 mps 757 mmHg 74%
    23:00 +17°C° 0 mm 3 mps 756 mmHg 73%

    24 May, Thursday

    Time Temperature Precipitation Wind Pressure Humidity
    00:00 +17°C° 0 mm 3 mps 756 mmHg 73%
    01:00 +17°C° 0 mm 3 mps 755 mmHg 72%
    02:00 +16°C° 0 mm 3 mps 755 mmHg 72%
    03:00 +16°C° 0 mm 3 mps 755 mmHg 73%
    04:00 +16°C° 0 mm 3 mps 755 mmHg 74%
    05:00 +15°C° 0 mm 4 mps 754 mmHg 73%
    06:00 +17°C° 0 mm 4 mps 754 mmHg 72%
    07:00 +17°C° 0 mm 5 mps 754 mmHg 71%
    08:00 +19°C° 0 mm 5 mps 753 mmHg 68%
    09:00 +20°C° 0 mm 6 mps 753 mmHg 64%
    10:00 +21°C° 0 mm 7 mps 752 mmHg 61%
    11:00 +22°C° 0 mm 7 mps 752 mmHg 59%
    12:00 +23°C° 0 mm 7 mps 751 mmHg 57%
    13:00 +23°C° 0 mm 8 mps 751 mmHg 55%
    14:00 +24°C° 0.3 mm 7 mps 750 mmHg 56%
    15:00 +24°C° 0.3 mm 7 mps 750 mmHg 58%
    16:00 +24°C° 0.3 mm 7 mps 749 mmHg 59%
    17:00 +22°C° 1.3 mm 6 mps 749 mmHg 66%
    18:00 +21°C° 1.3 mm 5 mps 749 mmHg 72%
    19:00 +20°C° 1.3 mm 4 mps 748 mmHg 79%
    20:00 +19°C° 0.4 mm 3 mps 748 mmHg 82%
    21:00 +18°C° 0.4 mm 2 mps 748 mmHg 85%
    22:00 +18°C° 0.4 mm 1 mps 748 mmHg 89%
    23:00 +16°C° 0.7 mm 2 mps 747 mmHg 90%

    25 May, Friday

    Time Temperature Precipitation Wind Pressure Humidity
    00:00 +16°C° 0.7 mm 2 mps 747 mmHg 92%
    01:00 +15°C° 0.7 mm 2 mps 747 mmHg 94%
    02:00 +15°C° 0.4 mm 2 mps 747 mmHg 94%
    03:00 +14°C° 0.4 mm 2 mps 747 mmHg 95%
    04:00 +13°C° 0.4 mm 3 mps 746 mmHg 95%
    05:00 +12°C° 0 mm 4 mps 746 mmHg 93%
    06:00 +10°C° 0 mm 5 mps 746 mmHg 91%
    07:00 +9°C° 0 mm 6 mps 746 mmHg 89%
    08:00 +10°C° 0.1 mm 6 mps 746 mmHg 87%
    09:00 +10°C° 0.1 mm 6 mps 745 mmHg 86%
    10:00 +10°C° 0.1 mm 6 mps 745 mmHg 85%
    11:00 +9°C° 0.3 mm 6 mps 745 mmHg 86%
    12:00 +9°C° 0.3 mm 6 mps 745 mmHg 87%
    13:00 +8°C° 0.3 mm 7 mps 745 mmHg 87%
    14:00 +8°C° 0.2 mm 7 mps 745 mmHg 86%
    15:00 +8°C° 0.2 mm 7 mps 746 mmHg 85%
    16:00 +7°C° 0.2 mm 8 mps 746 mmHg 84%
    17:00 +6°C° 0.5 mm 8 mps 746 mmHg 85%
    18:00 +6°C° 0.5 mm 8 mps 746 mmHg 86%
    19:00 +5°C° 0.5 mm 7 mps 746 mmHg 87%
    20:00 +5°C° 0.3 mm 8 mps 746 mmHg 86%
    21:00 +4°C° 0.3 mm 8 mps 746 mmHg 86%
    22:00 +3°C° 0.3 mm 9 mps 746 mmHg 85%
    23:00 +3°C° 0.3 mm 9 mps 746 mmHg 85%

    26 May, Saturday

    Time Temperature Precipitation Wind Pressure Humidity
    00:00 +4°C° 0.3 mm 8 mps 746 mmHg 86%
    01:00 +4°C° 0.3 mm 8 mps 746 mmHg 86%
    02:00 +3°C° 0.6 mm 9 mps 746 mmHg 87%
    03:00 +3°C° 0.6 mm 9 mps 746 mmHg 87%
    04:00 +3°C° 0.6 mm 9 mps 746 mmHg 87%
    05:00 +2°C° 2.3 mm 9 mps 746 mmHg 87%
    06:00 +2°C° 2.3 mm 9 mps 746 mmHg 87%
    07:00 +2°C° 2.3 mm 9 mps 746 mmHg 87%
    08:00 +2°C° 1.4 mm 10 mps 746 mmHg 86%
    09:00 +2°C° 1.4 mm 11 mps 746 mmHg 85%
    10:00 +2°C° 1.4 mm 11 mps 746 mmHg 84%
    11:00 +2°C° 1.2 mm 11 mps 746 mmHg 84%
    12:00 +2°C° 1.2 mm 11 mps 746 mmHg 84%
    13:00 +2°C° 1.2 mm 11 mps 746 mmHg 84%
    14:00 +2°C° 1.4 mm 11 mps 747 mmHg 85%
    15:00 +2°C° 1.4 mm 11 mps 747 mmHg 86%
    16:00 +2°C° 1.4 mm 10 mps 747 mmHg 86%
    17:00 +2°C° 0.8 mm 10 mps 747 mmHg 86%
    18:00 +2°C° 0.8 mm 10 mps 747 mmHg 86%
    19:00 +2°C° 0.8 mm 9 mps 748 mmHg 86%
    20:00 +2°C° 0.4 mm 9 mps 748 mmHg 86%
    21:00 +2°C° 0.4 mm 9 mps 748 mmHg 86%
    22:00 +2°C° 0.4 mm 9 mps 748 mmHg 86%
    23:00 +2°C° 0.1 mm 8 mps 748 mmHg 86%
    Show more